Weather History for White Plains, NY

Change the Weather History Date:

Monday, June 18, 2012

  Actual Average Record
Temperature  
Mean Temperature 60 °F -  
Max Temperature 69 °F 75 °F 90 °F (2006)
Min Temperature 53 °F 58 °F 51 °F (1980)
Degree Days  
Heating Degree Days 4    
Growing Degree Days 10 (Base 50)    
Moisture  
Dew Point 52 °F    
Average Humidity 74    
Maximum Humidity 93    
Minimum Humidity 58    
Precipitation  
Precipitation 0.00 in - - ()
Sea Level Pressure  
Sea Level Pressure 30.13 in    
Wind  
Wind Speed 3 mph (SE)    
Max Wind Speed 10 mph    
Max Gust Speed -    
Visibility 10 miles    
Events      
Averages and records for this station are not official NWS values.
T = Trace of Precipitation, MM = Missing Value Source: NWS Daily Summary

Daily Weather History Graph

Daily Weather History Graph

Search for Another Location

Airport:

Trip Planner

Search our weather history database for the weather conditions in past years. The results will help you decide how hot, cold, wet, or windy it might be!

Date:

Astronomy

Jun. 18, 2012 Rise Set
Actual Time 5:22 AM EDT 8:30 PM EDT
Civil Twilight 4:48 AM EDT 9:03 PM EDT
Nautical Twilight 4:05 AM EDT 9:46 PM EDT
Astronomical Twilight 3:14 AM EDT 10:38 PM EDT
Moon 4:34 AM EDT (6/18) 7:46 PM EDT (6/18)
Length of Visible Light 16h 15m
Length of Day
15h 07m
Waning Crescent, 1% of the Moon is Illuminated
Jun 18
Waning Crescent
Jun 19
New
Jun 26
First Quarter
Jul 3
Full
Jul 10
Last Quarter

Hourly Weather History & Observations

Time (EDT) Temp. Dew Point Humidity Pressure Visibility Wind Dir Wind Speed Gust Speed Precip Events Conditions
12:56 AM 53.1 °F 51.1 °F 93% 30.13 in 10.0 mi Calm Calm - N/A   Clear
1:56 AM 54.0 °F 51.1 °F 90% 30.12 in 10.0 mi Calm Calm - N/A   Clear
2:56 AM 54.0 °F 52.0 °F 93% 30.11 in 10.0 mi Calm Calm - N/A   Mostly Cloudy
3:56 AM 55.0 °F 52.0 °F 89% 30.11 in 10.0 mi Calm Calm - N/A   Overcast
4:56 AM 55.9 °F 52.0 °F 87% 30.10 in 10.0 mi East 4.6 mph - N/A   Mostly Cloudy
5:56 AM 57.0 °F 51.1 °F 81% 30.12 in 10.0 mi East 3.5 mph - N/A   Mostly Cloudy
6:56 AM 57.9 °F 52.0 °F 81% 30.12 in 10.0 mi Calm Calm - N/A   Mostly Cloudy
7:56 AM 57.9 °F 50.0 °F 75% 30.15 in 10.0 mi ESE 4.6 mph - N/A   Mostly Cloudy
8:56 AM 60.1 °F 50.0 °F 69% 30.14 in 10.0 mi SSE 3.5 mph - N/A   Mostly Cloudy
9:56 AM 63.0 °F 50.0 °F 63% 30.14 in 10.0 mi Variable 3.5 mph - N/A   Mostly Cloudy
10:56 AM 64.9 °F 50.0 °F 58% 30.13 in 10.0 mi SSE 5.8 mph - N/A   Scattered Clouds
11:56 AM 64.0 °F 48.9 °F 58% 30.13 in 10.0 mi Variable 5.8 mph - N/A   Partly Cloudy
12:56 PM 66.9 °F 53.1 °F 61% 30.14 in 10.0 mi Variable 6.9 mph - N/A   Scattered Clouds
1:56 PM 66.9 °F 52.0 °F 59% 30.13 in 10.0 mi Variable 4.6 mph - N/A   Partly Cloudy
2:56 PM 66.9 °F 55.0 °F 66% 30.13 in 10.0 mi SE 10.4 mph - N/A   Partly Cloudy
3:56 PM 68.0 °F 55.0 °F 63% 30.12 in 10.0 mi South 6.9 mph - N/A   Scattered Clouds
4:56 PM 66.0 °F 55.9 °F 70% 30.11 in 10.0 mi SSE 6.9 mph - N/A   Partly Cloudy
5:56 PM 68.0 °F 57.0 °F 68% 30.10 in 10.0 mi SE 10.4 mph - N/A   Partly Cloudy
6:56 PM 64.9 °F 55.0 °F 70% 30.10 in 10.0 mi SSE 5.8 mph - N/A   Mostly Cloudy
7:56 PM 64.0 °F 54.0 °F 70% 30.12 in 10.0 mi SSW 5.8 mph - N/A   Scattered Clouds
8:56 PM 62.1 °F 53.1 °F 72% 30.13 in 10.0 mi SSE 5.8 mph - N/A   Mostly Cloudy
9:56 PM 61.0 °F 52.0 °F 72% 30.14 in 10.0 mi SSE 5.8 mph - N/A   Mostly Cloudy
10:56 PM 57.9 °F 53.1 °F 84% 30.14 in 10.0 mi SE 4.6 mph - N/A   Clear
11:56 PM 57.2 °F 53.6 °F 88% 30.16 in 10.0 mi Calm Calm - N/A   Clear